This is the latest recevied weather packets stored in our database for station/object DK1ZX-10. If no packets are shown the sender has not sent any weather packets the latest 10 day(s).
| Time | Temp. | Humidity | Pressure | Rain* | Wind** | Luminosity | Snow |
|---|---|---|---|---|---|---|---|
| 1777690160 | 3.89° C | 76% | 1024.9 hPa | - | - | - | - |
| 1777688960 | 3.89° C | 75% | 1025 hPa | - | - | - | - |
| 1777687760 | 4.44° C | 75% | 1025 hPa | - | - | - | - |
| 1777686560 | 4.44° C | 74% | 1025 hPa | - | - | - | - |
| 1777685359 | 5° C | 73% | 1025.2 hPa | - | - | - | - |
| 1777684159 | 5.56° C | 73% | 1025.4 hPa | - | - | - | - |
| 1777682959 | 5.56° C | 71% | 1025.5 hPa | - | - | - | - |
| 1777681759 | 5.56° C | 71% | 1025.5 hPa | - | - | - | - |
| 1777680559 | 6.11° C | 70% | 1025.6 hPa | - | - | - | - |
| 1777679359 | 6.11° C | 69% | 1025.8 hPa | - | - | - | - |
| 1777678159 | 6.67° C | 69% | 1025.7 hPa | - | - | - | - |
| 1777676959 | 7.22° C | 67% | 1025.7 hPa | - | - | - | - |
| 1777675759 | 7.22° C | 65% | 1025.8 hPa | - | - | - | - |
| 1777674559 | 8.33° C | 62% | 1025.8 hPa | - | - | - | - |
| 1777673359 | 8.33° C | 59% | 1025.8 hPa | - | - | - | - |
| 1777672159 | 9.44° C | 58% | 1025.7 hPa | - | - | - | - |
| 1777670959 | 8.89° C | 59% | 1025.7 hPa | - | - | - | - |
| 1777669759 | 9.44° C | 57% | 1025.6 hPa | - | - | - | - |
| 1777668559 | 10° C | 57% | 1025.5 hPa | - | - | - | - |
| 1777667358 | 10.56° C | 55% | 1025.5 hPa | - | - | - | - |
| 1777666158 | 10.56° C | 53% | 1025.6 hPa | - | - | - | - |
| 1777664958 | 11.67° C | 50% | 1025.5 hPa | - | - | - | - |
| 1777663758 | 11.67° C | 48% | 1025.4 hPa | - | - | - | - |
| 1777662558 | 13.89° C | 40% | 1025.4 hPa | - | - | - | - |
| 1777661358 | 15° C | 38% | 1025.2 hPa | - | - | - | - |
* Rain since midnight (hover to see other rain measurements)
** Current wind speed in m/s (hover to see current wind gust speed)